SL-19 DEB, 23485

Orbit data source: Space-Track

SL-19 DEB, 23485 is space debris in LEO originally from a launch on Mon, 26 Dec 1994 UTC launched from the Tyuratam Missile And Space Complex (TTMTR). Debris objects in space refer to the collection of defunct objects orbiting the Earth. Examples of debris include non-operational satellites, rocket bodies, and fragments generated from explosions, collisions, or faulty payload assembly.

Loading next visibility...
Identifier
23485, 1994-085H
Orbit
LEO
Country
Flag of CISCIS
Related business
Manufacturer
Unknown
Mission
Spacecraft
Bus & Motor
Unknown
Mass
Unknown
Launch date (UTC)
1994-12-26 (31 years ago)
Launch vehicle
Unknown
Launch site
Tyuratam Missile And Space Complex (TTMTR)
Object type
Payload
Rocket body
Debris
Shape & HBR
Unknown shape, 0.1 m
Radar Cross Section
Small (<0.1 m²)

Expand to show TLE details & history
Last TLE update: 2 weeks ago

TLE from 2 weeks ago
0 SL-19 DEB
1 23485U 94085H   25298.47117228  .00000149  00000-0  52584-2 0  9996
2 23485  64.6400 199.0657 0172689 223.6877 135.0268 11.30343235270761
Epoch: 2025-10-25T11:18Z
TLE epoch observation values (Epoch: 2025-10-25T11:18:29.284Z)
Latitude
-0.00004°
Longitude
-4.65759°
Altitude
2,113.989 km
Speed
6.81 km/s
True Right ascension
13h 16m 15s
True Declination
0° 00' 00"
Sunlit
Object was in daylight at epoch
Visualization orbit readout
Latitude
Unknown
Longitude
Unknown
Altitude
Unknown
Speed
Unknown
Apparent Right ascension
Unknown
Apparent Declination
Unknown
Sunlit
N/A
Visualization observer readout
Local Sidereal Time
05:53:07
Azimuth
Unknown
Elevation
Unknown
Doppler factor
Unknown
Orbital elements
Apogee altitude
2,152.271 km
Perigee altitude
1,862.651 km
Semi-major axis
8,385.598 km
Eccentricity
0.01727
Inclination
64.64°
RAAN
199.0657°
Arg. of periapsis
223.6877°
True anomaly
136.40424°
Mean anomaly
135.0268°
Eccentric anomaly
135.71762°
Mean motion
2.82646 °/min
Orbital period
127.37 mins
BSTAR
0.0052584
Loading maneuver chart data...
Computing Atmospheric mass density...
Loading historical data...
Loading historical data...
Loading historical data...
Loading historical data...
Loading historical data...
Loading historical data...
Loading historical data...

Documentation

Showing up to 5 results
|